User: anonymous   Login
Location: Asni�res
(49.1337°N, 2.3555°E)
Time: 23:17:16
(UTC+00:00)
Language:

MOS 1-B Rocket - Orbit

View from above orbital plane
View from above orbital plane
View from above satellite
View from above satellite

Ground track
Ground track

The orbit data is extracted from the following two-line orbital elements,

1 20491U 90013D   22026.48769483 -.00000001  00000-0  67806-4 0  9993
2 20491  99.0127 200.9804 0467773 318.1892  38.4350 13.03573399520198
Epoch (UTC): 26 January 2022 11:42:16
Eccentricity: 0.0467773
inclination: 99.0127°
perigee height: 891 km
apogee height: 1605 km
right ascension of ascending node: 200.9804°
argument of perigee: 318.1892°
revolutions per day: 13.03573399
mean anomaly at epoch: 38.4350°
orbit number at epoch: 52019

The dashed part of the orbit path shows where the satellite is in the earth's shadow,  

DLR